FW6684 Weather Reports


Display with metric or nautical units.
time (UTC)temp
F
wind
direction
speed
MPH
gust
MPH
rain 1hr
in
rain 24hr
in
rain mn
in
humidity
%
barometer
mb
20260507164043 59 0 0.0 0.0 0.00 0.00 0.00 52 1017.6
20260507163544 59 0 0.0 0.0 0.00 0.00 0.00 53 1017.4
20260507163049 59 0 0.0 0.0 0.00 0.00 0.00 52 1017.4
20260507162544 59 0 0.0 0.0 0.00 0.00 0.00 52 1017.5
20260507162043 59 0 0.0 0.0 0.00 0.00 0.00 54 1017.4
20260507161553 59 0 0.0 0.0 0.00 0.00 0.00 52 1017.5
20260507161043 59 0 0.0 0.0 0.00 0.00 0.00 52 1017.5
20260507160543 59 0 0.0 0.0 0.00 0.00 0.00 52 1017.6
20260507160052 60 0 0.0 0.0 0.00 0.00 0.00 53 1017.5
20260507155543 60 0 0.0 0.0 0.00 0.00 0.00 52 1017.5
20260507155043 60 0 0.0 0.0 0.00 0.00 0.00 51 1017.5
20260507154554 60 0 0.0 0.0 0.00 0.00 0.00 51 1017.5
20260507154044 60 0 0.0 0.0 0.00 0.00 0.00 52 1017.5
20260507153543 60 0 0.0 0.0 0.00 0.00 0.00 51 1017.6
20260507153051 60 0 0.0 0.0 0.00 0.00 0.00 50 1017.5
20260507152544 60 0 0.0 0.0 0.00 0.00 0.00 49 1017.6
20260507152043 61 0 0.0 0.0 0.00 0.00 0.00 49 1017.6
20260507151547 61 0 0.0 0.0 0.00 0.00 0.00 48 1017.6
20260507151042 61 0 0.0 0.0 0.00 0.00 0.00 48 1017.6
20260507150543 61 0 0.0 0.0 0.00 0.00 0.00 44 1017.7
20260507150050 62 0 0.0 0.0 0.00 0.00 0.00 49 1017.7
20260507145543 61 0 0.0 0.0 0.00 0.00 0.00 48 1017.7
20260507145042 61 0 0.0 0.0 0.00 0.00 0.00 48 1017.7
20260507144553 61 0 0.0 0.0 0.00 0.00 0.00 46 1017.7
20260507144043 61 0 0.0 0.0 0.00 0.00 0.00 45 1017.8
20260507143543 61 0 0.0 0.0 0.00 0.00 0.00 46 1017.8
20260507143103 61 0 0.0 0.0 0.00 0.00 0.00 46 1017.8
20260507142543 61 0 0.0 0.0 0.00 0.00 0.00 46 1017.9
20260507142043 61 0 0.0 0.0 0.00 0.00 0.00 45 1017.8
20260507141555 62 0 0.0 0.0 0.00 0.00 0.00 44 1018.0
20260507141043 62 0 0.0 0.0 0.00 0.00 0.00 46 1018.1
20260507140543 62 0 0.0 0.0 0.00 0.00 0.00 46 1018.0
20260507140048 61 0 0.0 0.0 0.00 0.00 0.00 46 1018.1
20260507135543 60 0 0.0 0.0 0.00 0.00 0.00 46 1018.1
20260507135043 60 0 0.0 0.0 0.00 0.00 0.00 48 1018.0
20260507134556 59 0 0.0 0.0 0.00 0.00 0.00 48 1018.1
20260507134042 59 0 0.0 0.0 0.00 0.00 0.00 48 1018.1
20260507133543 58 0 0.0 0.0 0.00 0.00 0.00 49 1018.2
20260507133056 58 0 0.0 0.0 0.00 0.00 0.00 51 1018.2
20260507132542 58 0 0.0 0.0 0.00 0.00 0.00 51 1018.2
20260507132042 58 0 0.0 0.0 0.00 0.00 0.00 53 1018.2
20260507131602 58 0 0.0 0.0 0.00 0.00 0.00 53 1018.3
20260507131042 58 0 0.0 0.0 0.00 0.00 0.00 52 1018.2
20260507130547 58 0 0.0 0.0 0.00 0.00 0.00 49 1018.2
20260507130057 58 0 0.0 0.0 0.00 0.00 0.00 51 1018.3
20260507125543 58 0 0.0 0.0 0.00 0.00 0.00 49 1018.3
20260507125043 59 0 0.0 0.0 0.00 0.00 0.00 48 1018.3
20260507124557 59 0 0.0 0.0 0.00 0.00 0.00 47 1018.3
20260507124047 59 0 0.0 0.0 0.00 0.00 0.00 47 1018.3
20260507123543 59 0 0.0 0.0 0.00 0.00 0.00 48 1018.2
20260507123049 59 0 0.0 0.0 0.00 0.00 0.00 48 1018.3
20260507122547 59 0 0.0 0.0 0.00 0.00 0.00 49 1018.3
20260507122045 59 0 0.0 0.0 0.00 0.00 0.00 49 1018.3
20260507121551 59 0 0.0 0.0 0.00 0.00 0.00 49 1018.4
20260507121047 58 0 0.0 0.0 0.00 0.00 0.00 52 1018.6
20260507120542 58 0 0.0 0.0 0.00 0.00 0.00 51 1018.5
20260507120052 58 0 0.0 0.0 0.00 0.00 0.00 49 1018.6
20260507115543 59 0 0.0 0.0 0.00 0.00 0.00 50 1018.7
20260507115042 59 0 0.0 0.0 0.00 0.00 0.00 48 1018.6
20260507114549 59 0 0.0 0.0 0.00 0.00 0.00 54 1018.6
20260507114045 59 0 0.0 0.0 0.00 0.00 0.00 50 1018.5
20260507113543 59 0 0.0 0.0 0.00 0.00 0.00 50 1018.6
20260507113052 59 0 0.0 0.0 0.00 0.00 0.00 51 1018.6
20260507112544 59 0 0.0 0.0 0.00 0.00 0.00 53 1018.7
20260507112042 59 0 0.0 0.0 0.00 0.00 0.00 54 1018.6
20260507111550 58 0 0.0 0.0 0.00 0.00 0.00 56 1018.7
20260507111045 57 0 0.0 0.0 0.00 0.00 0.00 56 1018.8
20260507110543 57 0 0.0 0.0 0.00 0.00 0.00 63 1018.6
20260507105542 56 0 0.0 0.0 0.00 0.00 0.00 60 1018.8
20260507105043 56 0 0.0 0.0 0.00 0.00 0.00 61 1018.7
20260507104547 55 0 0.0 0.0 0.00 0.00 0.00 60 1018.8
20260507104043 55 0 0.0 0.0 0.00 0.00 0.00 60 1018.8
20260507103543 56 0 0.0 0.0 0.00 0.00 0.00 58 1018.7
20260507103054 56 0 0.0 0.0 0.00 0.00 0.00 58 1018.8
20260507102543 56 0 0.0 0.0 0.00 0.00 0.00 58 1018.9
20260507102043 56 0 0.0 0.0 0.00 0.00 0.00 59 1018.9
20260507101549 56 0 0.0 0.0 0.00 0.00 0.00 61 1018.9
20260507101042 55 0 0.0 0.0 0.00 0.00 0.00 61 1018.9
20260507100544 55 0 0.0 0.0 0.00 0.00 0.00 59 1018.9
20260507100107 55 0 0.0 0.0 0.00 0.00 0.00 62 1018.9
20260507095547 54 0 0.0 0.0 0.00 0.00 0.00 63 1018.8
20260507095044 54 0 0.0 0.0 0.00 0.00 0.00 63 1019.0
20260507094607 54 0 0.0 0.0 0.00 0.00 0.00 69 1018.8
20260507094044 54 0 0.0 0.0 0.00 0.00 0.00 68 1018.9
20260507093544 54 0 0.0 0.0 0.00 0.00 0.00 71 1018.8
20260507093058 54 0 0.0 0.0 0.00 0.00 0.00 70 1018.9
20260507092544 54 0 0.0 0.0 0.00 0.00 0.00 72 1018.9
20260507092043 54 0 0.0 0.0 0.00 0.00 0.00 72 1018.8
20260507091628 54 0 0.0 0.0 0.00 0.00 0.00 71 1019.0
20260507091044 54 0 0.0 0.0 0.00 0.00 0.00 72 1019.0
20260507090543 54 0 0.0 0.0 0.00 0.00 0.00 72 1019.0
20260507090105 54 0 0.0 0.0 0.00 0.00 0.00 76 1018.9
20260507085548 54 0 0.0 0.0 0.00 0.00 0.00 75 1019.0
20260507085045 53 0 0.0 0.0 0.00 0.00 0.00 75 1019.1
20260507084557 54 0 0.0 0.0 0.00 0.00 0.00 76 1019.1
20260507084044 54 0 0.0 0.0 0.00 0.00 0.00 78 1019.2
20260507083544 54 0 0.0 0.0 0.00 0.00 0.00 78 1019.1
20260507083053 54 0 0.0 0.0 0.00 0.00 0.00 79 1019.2
20260507082544 53 0 0.0 0.0 0.00 0.00 0.00 80 1018.9
20260507082047 53 0 0.0 0.0 0.00 0.00 0.00 81 1019.1
20260507081550 52 0 0.0 0.0 0.00 0.00 0.00 81 1019.1
20260507081044 52 0 0.0 0.0 0.00 0.00 0.00 82 1019.2
20260507080543 52 0 0.0 0.0 0.00 0.00 0.00 83 1019.2
20260507080052 52 0 0.0 0.0 0.00 0.00 0.00 83 1019.1
20260507075544 52 0 0.0 0.0 0.00 0.00 0.00 85 1019.1
20260507075044 52 0 0.0 0.0 0.00 0.00 0.00 87 1019.2
20260507074556 51 0 0.0 0.0 0.00 0.00 0.00 88 1018.9
20260507074043 51 0 0.0 0.0 0.00 0.00 0.00 89 1018.9
20260507073545 50 0 0.0 0.0 0.00 0.00 0.00 91 1019.1
20260507073051 50 0 0.0 0.0 0.00 0.00 0.00 92 1019.0
20260507072544 49 0 0.0 0.0 0.00 0.00 0.00 92 1018.8
20260507072045 48 0 0.0 0.0 0.00 0.00 0.00 93 1018.9
20260507071557 48 0 0.0 0.0 0.00 0.00 0.00 94 1018.9
20260507071044 47 0 0.0 0.0 0.00 0.00 0.00 94 1019.0
20260507070544 46 0 0.0 0.0 0.00 0.00 0.00 94 1019.0
20260507065543 45 0 0.0 0.0 0.00 0.00 0.00 94 1019.0
20260507065044 45 0 0.0 0.0 0.00 0.00 0.00 93 1018.9
20260507064600 45 0 0.0 0.0 0.00 0.00 0.00 93 1018.9
20260507064044 44 0 0.0 0.0 0.00 0.00 0.00 93 1018.9
20260507063544 44 0 0.0 0.0 0.00 0.00 0.00 94 1018.9
20260507063051 44 0 0.0 0.0 0.00 0.00 0.00 94 1018.9
20260507062544 44 0 0.0 0.0 0.00 0.00 0.00 93 1018.9
20260507062044 44 0 0.0 0.0 0.00 0.00 0.00 94 1018.9
20260507061552 44 0 0.0 0.0 0.00 0.00 0.00 94 1018.8
20260507061044 43 0 0.0 0.0 0.00 0.00 0.00 94 1018.8
20260507060547 43 0 0.0 0.0 0.00 0.00 0.00 94 1018.9
20260507060105 43 0 0.0 0.0 0.00 0.00 0.00 93 1018.8
20260507055546 43 0 0.0 0.0 0.00 0.00 0.00 93 1018.8
20260507055044 43 0 0.0 0.0 0.00 0.00 0.00 93 1018.7
20260507054559 43 0 0.0 0.0 0.00 0.00 0.00 93 1018.8
20260507054043 43 0 0.0 0.0 0.00 0.00 0.00 93 1018.7
20260507053544 43 0 0.0 0.0 0.00 0.00 0.00 93 1018.6
20260507053057 43 0 0.0 0.0 0.00 0.00 0.00 93 1018.6
20260507052547 43 0 0.0 0.0 0.00 0.00 0.00 93 1018.5
20260507052044 43 0 0.0 0.0 0.00 0.00 0.00 93 1018.6
20260507051556 43 0 0.0 0.0 0.00 0.00 0.00 93 1018.5
20260507051047 43 0 0.0 0.0 0.00 0.00 0.00 93 1018.5
20260507050546 43 0 0.0 0.0 0.00 0.00 0.00 93 1018.5
20260507050054 43 0 0.0 0.0 0.00 0.00 0.00 93 1018.5
20260507045548 42 0 0.0 0.0 0.00 0.00 0.00 93 1018.4
20260507045045 42 0 0.0 0.0 0.00 0.00 0.00 93 1018.4
20260507044555 42 0 0.0 0.0 0.00 0.00 0.00 93 1018.3
20260507044044 42 0 0.0 0.0 0.00 0.00 0.00 93 1018.4
20260507043543 41 0 0.0 0.0 0.00 0.00 0.00 93 1018.3
20260507043059 41 0 0.0 0.0 0.00 0.00 0.00 92 1018.3
20260507042544 41 0 0.0 0.0 0.00 0.00 0.00 93 1018.3
20260507042048 41 0 0.0 0.0 0.00 0.00 0.00 92 1018.3
20260507041554 41 0 0.0 0.0 0.00 0.00 0.00 92 1018.2
20260507041044 41 0 0.0 0.0 0.00 0.00 0.00 92 1018.3
20260507040546 42 0 0.0 0.0 0.00 0.00 0.00 92 1018.3
20260507040052 42 0 0.0 0.0 0.00 0.00 0.00 92 1018.3
20260507035544 42 0 0.0 0.0 0.00 0.00 0.00 92 1018.2
20260507035044 42 0 0.0 0.0 0.00 0.00 0.00 92 1018.2
20260507034559 42 0 0.0 0.0 0.00 0.00 0.00 92 1018.2
20260507034044 42 0 0.0 0.0 0.00 0.00 0.00 92 1018.2
20260507033545 43 0 0.0 0.0 0.00 0.00 0.00 92 1018.2
20260507033053 43 0 0.0 0.0 0.00 0.00 0.00 92 1018.1
20260507032544 43 0 0.0 0.0 0.00 0.00 0.00 93 1018.2
20260507032043 43 0 0.0 0.0 0.00 0.00 0.00 92 1018.2
20260507031552 43 0 0.0 0.0 0.00 0.00 0.00 92 1018.2
20260507031044 43 0 0.0 0.0 0.00 0.00 0.00 93 1018.3
20260507030544 43 0 0.0 0.0 0.00 0.00 0.00 93 1018.4
20260507030051 42 0 0.0 0.0 0.00 0.00 0.00 92 1018.2
20260507025548 42 0 0.0 0.0 0.00 0.00 0.00 92 1018.3
20260507025044 42 0 0.0 0.0 0.00 0.00 0.00 92 1018.2
20260507024558 42 0 0.0 0.0 0.00 0.00 0.00 92 1018.3
20260507024044 42 0 0.0 0.0 0.00 0.00 0.00 92 1018.3
20260507023544 42 0 0.0 0.0 0.00 0.00 0.00 92 1018.3
20260507023051 42 0 0.0 0.0 0.00 0.00 0.00 92 1018.3
20260507022544 42 0 0.0 0.0 0.00 0.00 0.00 92 1018.3
20260507022044 42 0 0.0 0.0 0.00 0.00 0.00 91 1018.4
20260507021557 42 0 0.0 0.0 0.00 0.00 0.00 91 1018.4
20260507021044 42 0 0.0 0.0 0.00 0.00 0.00 91 1018.2
20260507020547 42 0 0.0 0.0 0.00 0.00 0.00 91 1018.3
20260507020054 42 0 0.0 0.0 0.00 0.00 0.00 91 1018.2
20260507015544 42 0 0.0 0.0 0.00 0.00 0.00 91 1018.2
20260507015044 43 0 0.0 0.0 0.00 0.00 0.00 91 1018.2
20260507014553 43 0 0.0 0.0 0.00 0.00 0.00 91 1018.1
20260507014044 43 0 0.0 0.0 0.00 0.00 0.00 91 1018.1
20260507013543 43 0 0.0 0.0 0.00 0.00 0.00 91 1018.2
20260507013052 43 0 0.0 0.0 0.00 0.00 0.00 91 1018.2
20260507012547 43 0 0.0 0.0 0.00 0.00 0.00 90 1018.1
20260507012044 43 0 0.0 0.0 0.00 0.00 0.00 90 1018.1
20260507011551 43 0 0.0 0.0 0.00 0.00 0.00 90 1018.1
20260507011044 43 0 0.0 0.0 0.00 0.00 0.00 90 1018.1
20260507010544 43 0 0.0 0.0 0.00 0.00 0.00 90 1018.1
20260507010109 43 0 0.0 0.0 0.00 0.00 0.00 89 1018.1
20260507005544 44 0 0.0 0.0 0.00 0.00 0.00 89 1018.0
20260507005043 44 0 0.0 0.0 0.00 0.00 0.00 89 1018.1
20260507004550 44 0 0.0 0.0 0.00 0.00 0.00 89 1018.0